User: anonymous   Login
Location: �terpigny
(49.8910°N, 2.9249°E)
Time: 11:28:57
(UTC+00:00)
Language:

H-2A R/B - Orbit

View from above orbital plane
View from above orbital plane
View from above satellite
View from above satellite

Ground track
Ground track

The orbit data is extracted from the following two-line orbital elements,

1 28932U 06002B   22018.09728733  .00001285  00000-0  12170-3 0  9994
2 28932  98.3113  52.2837 0086827 224.2375 198.0157 14.92894278867718
Epoch (UTC): 18 January 2022 02:20:05
Eccentricity: 0.0086827
inclination: 98.3113°
perigee height: 528 km
apogee height: 649 km
right ascension of ascending node: 52.2837°
argument of perigee: 224.2375°
revolutions per day: 14.92894278
mean anomaly at epoch: 198.0157°
orbit number at epoch: 86771

The dashed part of the orbit path shows where the satellite is in the earth's shadow,  

DLR